Regional Weather Roundup
Issued by NWS

Home | Current Version | Previous Version | Text Only | Print | Product List | Glossary On
Versions: 1 2 3 4 5 6 7 8 9 10 11 12 13 14 15 16 17 18 19 20 21 22 23 24 25 26 27 28 29 30 31 32 33 34 35 36 37 38 39 40 41 42 43 44 45 46 47 48 49 50
000
ASUS43 KTOP 231959
RWRKS

WEATHER ROUNDUP FOR KANSAS
NATIONAL WEATHER SERVICE GOODLAND KS
200 PM CST SUN NOV 23 2014

NOTE:  "FAIR" INDICATES FEW OR NO CLOUDS BELOW 12,000 FEET WITH NO
SIGNIFICANT WEATHER AND/OR OBSTRUCTIONS TO VISIBILITY.

KSZ001>006-013>018-027>032-041>047-232100-
NORTHWEST KANSAS

CITY           SKY/WX    TMP DP  RH WIND       PRES   REMARKS
GOODLAND       PTSUNNY   45  10  24 N30G47    29.69R
HAYS           CLOUDY    45  30  57 N31G37    29.57F
HILL CITY      CLOUDY    48  23  37 N29G39    29.61S
RUSSELL        CLOUDY    42  38  85 N21G30    29.55F
$$

KSZ061>065-074>080-084>089-232100-
SOUTHWEST KANSAS

CITY           SKY/WX    TMP DP  RH WIND       PRES   REMARKS
DODGE CITY     CLOUDY    43  34  70 N23G31    29.57R
ELKHART          N/A    N/A N/A N/A MISG        N/A
GARDEN CITY    CLOUDY    47  20  34 N32G43    29.61R
GREAT BEND     CLOUDY    43  34  70 N25G36    29.55S
LIBERAL        CLOUDY    46  27  46 N26G37    29.64R
$$

KSZ066>073-081>083-090>101-232100-
SOUTHEAST KANSAS

CITY           SKY/WX    TMP DP  RH WIND       PRES   REMARKS
CHANUTE        CLOUDY    57  56  96 W5        29.34F
COFFEYVILLE    CLOUDY    61  55  81 NW5       29.32F
HUTCHINSON     CLOUDY    47  37  68 N23G41    29.46R
MEDICINE LODGE   N/A     47  36  65 N37G55    29.45R
NEWTON         CLOUDY    46  37  71 N35G45    29.43R
PARSONS        LGT RAIN  59  57  93 NW5       29.34F
WICHITA INTL   CLOUDY    49  40  71 N26G43    29.40R
WICHITA JABRA  CLOUDY    48  41  76 N30G44    29.40R
WICHITA MCCONL CLOUDY    49  49  99 NW26G37   29.39R
WINFIELD       CLOUDY    58  50  75 N15       29.36S
$$

KSZ007>012-019>026-033>040-048>060-102>105-232100-
NORTHEAST KANSAS

CITY           SKY/WX    TMP DP  RH WIND       PRES   REMARKS
CONCORDIA      LGT RAIN  41  38  89 N21G29    29.53F FOG
EMPORIA        CLOUDY    55  52  89 N8        29.35F
LAWRENCE       LGT RAIN  56  55  97 CALM      29.35F FOG
MANHATTAN      CLOUDY    48  40  73 N16G29    29.44S
OLATHE IND     LGT RAIN  57  55  93 W5        29.36S FOG
OLATHE EXE     CLOUDY    57  56  96 MISG      29.34F FOG
SALINA         LGT RAIN  45  38  76 N30G38    29.50R
TOPEKA BILLARD CLOUDY    56  55  97 W6        29.36F
TOPEKA FORBES  LGT RAIN  56  53  90 NW10      29.36F
$$



USA.gov is the U.S. government's official web portal to all federal, state and local government web resources and services.